Погода в Фалираки

Греция     36°20′25″N   28°12′01″E
темп.,
°C
ветер,
м/с
пор.,
м/с
влажн.,
%
обл.,
%
осадки,
мм/ч
давл.,
гПа
погр.,
м
16 мая, вс
вс1600:00+20с226498 0.0 101076
03:00+19зсз33580 0.0 1009109
06:00+18зсз35702 0.0 1008177
09:00+21зсз345677 0.0 1009248
12:00+22ю335996 0.0 1009498
15:00+23ссв34564 0.0 1008454
18:00+22зсз79550 0.0 1008334
21:00+19зсз7117428 0.0 1009497
17 мая, пн
пн1700:00+18зсз7107589 0.0 1010465
03:00+18зсз811778 0.0 1009474
06:00+18зсз610775 0.0 1009374
09:00+21сз47575 0.0 1011264
12:00+23зсз25516 0.0 1011226
15:00+25зсз46478 0.0 1010199
18:00+24зсз69475 0.0 1010160
21:00+20з33682 0.0 101156
18 мая, вт
вт1800:00+19зсз22710 0.0 101167
03:00+19сз22751 0.0 101186
06:00+18зсз22740 0.0 101183
09:00+21юв10640 0.0 1013165
12:00+21ююв43670 0.0 1013263
15:00+22юв32700 0.0 1013268
18:00+22юв22755 0.0 1013233
21:00+20св228116 0.0 101344
19 мая, ср
ср1900:00+20сз22763 0.0 101331
03:00+20сз226813 0.0 101243
06:00+20зсз11690 0.0 101236
09:00+21ююв22621 0.0 101388
12:00+22ююв43635 0.0 1013217
15:00+23ю44630 0.0 1013142
18:00+22ю44731 0.0 1011159
21:00+21зюз22790 0.0 101215
20 мая, чт
чт2000:00+20ссз22740 0.0 101223
03:00+20сз22740 0.0 101038
06:00+20з11680 0.0 101032
09:00+22ю22640 0.0 101187
12:00+22ююв43655 0.0 1012236
15:00+23юв326394 0.0 1011239
18:00+23юв32623 0.0 1011251
21:00+21в11720 0.0 101111